timestamp,surface_pressure_avg,surface_temp_avg,battery_voltage,lat,long
2021-07-04 00:09:01+00:00,224.1813,12.3,13.29,47.84626,-54.09684
2021-07-04 00:19:01+00:00,218.0514,12.3,12.97,47.84626,-54.09684
2021-07-04 00:29:01+00:00,215.0648,12.3,12.97,47.84626,-54.09684
2021-07-04 00:39:01+00:00,220.5781,12.3,12.97,47.84626,-54.09684
2021-07-04 00:49:01+00:00,222.0199,12.3,12.97,47.84626,-54.09684
2021-07-04 00:59:01+00:00,214.0581,12.3,12.97,47.84626,-54.09684
2021-07-04 01:09:01+00:00,209.7315,12.3,12.97,47.84626,-54.09684
2021-07-04 01:19:01+00:00,208.3531,12.3,12.73,47.84626,-54.09684
2021-07-04 01:29:01+00:00,204.9832,12.3,12.73,47.84626,-54.09684
2021-07-04 01:39:01+00:00,208.5231,12.3,12.73,47.84626,-54.09684
2021-07-04 01:49:01+00:00,213.5481,12.3,12.73,47.84626,-54.09684
2021-07-04 01:59:01+00:00,217.9365,12.3,12.73,47.84626,-54.09684
2021-07-04 02:09:01+00:00,220.9064,12.3,12.73,47.84626,-54.09684
2021-07-04 02:19:00+00:00,222.7415,12.3,12.73,47.84626,-54.09684
2021-07-04 02:29:00+00:00,226.4748,12.3,12.73,47.84626,-54.09684
2021-07-04 02:39:00+00:00,227.7781,12.3,12.73,47.84626,-54.09684
2021-07-04 02:49:00+00:00,224.9499,12.3,12.73,47.84626,-54.09684
2021-07-04 02:59:00+00:00,221.4932,12.3,12.73,47.84626,-54.09684
2021-07-04 03:09:00+00:00,226.0347,12.28,12.73,47.84626,-54.09684
2021-07-04 03:19:01+00:00,232.2665,12.22,12.73,47.84626,-54.09684
2021-07-04 03:29:01+00:00,232.6198,12.23,12.73,47.84626,-54.09684
2021-07-04 03:39:01+00:00,236.9464,12.25,12.73,47.84626,-54.09684
2021-07-04 03:49:01+00:00,247.3398,12.25,12.73,47.84626,-54.09684
2021-07-04 03:59:01+00:00,253.0997,12.28,12.73,47.84626,-54.09684
2021-07-04 04:09:01+00:00,250.4998,12.29,12.73,47.84626,-54.09684
2021-07-04 04:19:01+00:00,254.4014,12.3,12.73,47.84626,-54.09684
2021-07-04 04:29:01+00:00,261.6798,12.3,12.73,47.84626,-54.09684
2021-07-04 04:39:01+00:00,264.3715,12.3,12.73,47.84626,-54.09684
2021-07-04 04:49:01+00:00,264.0598,12.29,12.73,47.84626,-54.09684
2021-07-04 04:59:01+00:00,267.2164,12.27,12.73,47.84626,-54.09684
2021-07-04 05:09:01+00:00,273.9297,12.29,12.73,47.84626,-54.09684
2021-07-04 05:19:01+00:00,281.9897,12.3,12.73,47.84626,-54.09684
2021-07-04 05:29:01+00:00,283.7513,12.3,12.73,47.84626,-54.09684
2021-07-04 05:39:01+00:00,282.4581,12.3,12.73,47.84626,-54.09684
2021-07-04 05:49:01+00:00,293.408,12.3,12.73,47.84626,-54.09684
2021-07-04 05:59:01+00:00,300.6363,12.3,12.73,47.84626,-54.09684
2021-07-04 06:09:01+00:00,296.963,12.3,12.73,47.84626,-54.09684
2021-07-04 06:19:01+00:00,292.0597,12.3,12.65,47.84626,-54.09684
2021-07-04 06:29:01+00:00,295.1529,12.3,12.65,47.84626,-54.09684
2021-07-04 06:39:01+00:00,300.9297,12.3,12.65,47.84626,-54.09684
2021-07-04 06:49:01+00:00,305.0981,12.2,12.65,47.84626,-54.09684
2021-07-04 06:59:01+00:00,304.0347,12.2,12.65,47.84626,-54.09684
2021-07-04 07:09:01+00:00,303.823,12.25,12.65,47.84626,-54.09684
2021-07-04 07:19:01+00:00,308.6012,12.2,12.65,47.84626,-54.09684
2021-07-04 07:29:01+00:00,310.303,12.2,12.65,47.84626,-54.09684
2021-07-04 07:39:01+00:00,299.703,12.45,12.65,47.84626,-54.09684
2021-07-04 07:49:01+00:00,299.5497,12.31,12.65,47.84626,-54.09684
2021-07-04 07:59:01+00:00,306.8065,12.29,12.65,47.84626,-54.09684
2021-07-04 08:09:01+00:00,307.2764,12.49,12.65,47.84626,-54.09684
2021-07-04 08:19:00+00:00,299.693,12.6,12.65,47.84626,-54.09684
2021-07-04 08:29:00+00:00,300.7081,12.5,12.65,47.84626,-54.09684
2021-07-04 08:39:00+00:00,307.5131,12.53,12.65,47.84626,-54.09684
2021-07-04 08:49:00+00:00,306.9996,12.65,12.65,47.84626,-54.09684
2021-07-04 08:59:00+00:00,298.5497,12.7,12.65,47.84626,-54.09684
2021-07-04 09:09:00+00:00,296.6481,12.7,12.65,47.84626,-54.09684
2021-07-04 09:19:01+00:00,296.8047,12.68,12.73,47.84626,-54.09684
2021-07-04 09:29:01+00:00,285.5697,12.68,12.73,47.84626,-54.09684
2021-07-04 09:39:01+00:00,276.2579,12.7,12.73,47.84626,-54.09684
2021-07-04 09:49:01+00:00,279.3763,12.6,12.73,47.84626,-54.09684
2021-07-04 09:59:01+00:00,277.2447,12.7,12.73,47.84626,-54.09684
2021-07-04 10:09:01+00:00,266.3297,12.7,12.73,47.84626,-54.09684
2021-07-04 10:19:00+00:00,265.2248,12.7,12.89,47.84626,-54.09684
2021-07-04 10:29:00+00:00,262.8414,12.7,12.89,47.84626,-54.09684
2021-07-04 10:39:00+00:00,250.1231,12.7,12.89,47.84626,-54.09684
2021-07-04 10:49:00+00:00,247.2664,12.72,12.89,47.84626,-54.09684
2021-07-04 10:59:00+00:00,253.1414,12.74,12.89,47.84626,-54.09684
2021-07-04 11:09:00+00:00,245.4713,12.78,12.89,47.84626,-54.09684
2021-07-04 11:19:00+00:00,234.8247,12.79,13.21,47.84626,-54.09684
2021-07-04 11:29:00+00:00,239.3765,12.8,13.21,47.84626,-54.09684
2021-07-04 11:39:00+00:00,240.0014,12.8,13.21,47.84626,-54.09684
2021-07-04 11:49:00+00:00,230.0681,12.8,13.21,47.84626,-54.09684
2021-07-04 11:59:00+00:00,224.4248,12.8,13.21,47.84626,-54.09684
2021-07-04 12:09:00+00:00,227.1231,12.8,13.21,47.84626,-54.09684
2021-07-04 12:19:00+00:00,225.8464,12.8,13.29,47.84626,-54.09684
2021-07-04 12:29:00+00:00,218.6897,12.8,13.29,47.84626,-54.09684
2021-07-04 12:39:00+00:00,219.5315,12.8,13.29,47.84626,-54.09684
2021-07-04 12:49:00+00:00,227.5131,12.8,13.29,47.84626,-54.09684
2021-07-04 12:59:00+00:00,229.7248,12.8,13.29,47.84626,-54.09684
2021-07-04 13:09:00+00:00,222.5231,12.8,13.29,47.84626,-54.09684
2021-07-04 13:19:00+00:00,219.6947,12.8,13.68,47.84626,-54.09684
2021-07-04 13:29:00+00:00,220.9998,12.8,13.68,47.84626,-54.09684
2021-07-04 13:39:00+00:00,226.7114,12.8,13.68,47.84626,-54.09684
2021-07-04 13:49:00+00:00,231.2064,12.8,13.68,47.84626,-54.09684
2021-07-04 13:59:00+00:00,227.2714,12.8,13.68,47.84626,-54.09684
2021-07-04 14:09:00+00:00,225.7764,12.84,13.68,47.84626,-54.09684
2021-07-04 14:19:01+00:00,234.2381,12.8,13.84,47.84626,-54.09684
2021-07-04 14:29:01+00:00,235.6747,12.8,13.84,47.84626,-54.09684
2021-07-04 14:39:01+00:00,233.3732,12.8,13.84,47.84626,-54.09684
2021-07-04 14:49:01+00:00,240.8681,12.8,13.84,47.84626,-54.09684
2021-07-04 14:59:01+00:00,243.3214,12.8,13.84,47.84626,-54.09684
2021-07-04 15:09:01+00:00,234.5231,12.8,13.84,47.84626,-54.09684
2021-07-04 15:19:01+00:00,237.3814,12.8,14.08,47.84626,-54.09684
2021-07-04 15:29:01+00:00,243.0081,12.8,14.08,47.84626,-54.09684
2021-07-04 15:39:01+00:00,240.1647,12.8,14.08,47.84626,-54.09684
2021-07-04 15:49:01+00:00,242.7814,12.8,14.08,47.84626,-54.09684
2021-07-04 15:59:01+00:00,250.1815,12.8,14.08,47.84626,-54.09684
2021-07-04 16:09:01+00:00,252.9047,12.8,14.08,47.84626,-54.09684
2021-07-04 16:19:01+00:00,253.2831,12.8,14.08,47.84626,-54.09684
2021-07-04 16:29:01+00:00,260.9814,12.8,14.08,47.84626,-54.09684
2021-07-04 16:39:01+00:00,268.0997,12.8,14.08,47.84626,-54.09684
2021-07-04 16:49:01+00:00,269.0797,12.88,14.08,47.84626,-54.09684
2021-07-04 16:59:01+00:00,268.748,12.9,14.08,47.84626,-54.09684
2021-07-04 17:09:01+00:00,281.1331,12.88,14.08,47.84626,-54.09684
2021-07-04 17:19:01+00:00,287.238,12.87,14.08,47.84626,-54.09684
2021-07-04 17:29:01+00:00,285.9329,12.9,14.08,47.84626,-54.09684
2021-07-04 17:39:01+00:00,287.2047,12.9,14.08,47.84626,-54.09684
2021-07-04 17:49:01+00:00,299.2614,12.9,14.08,47.84626,-54.09684
2021-07-04 17:59:01+00:00,301.2513,12.9,14.08,47.84626,-54.09684
2021-07-04 18:09:01+00:00,302.3163,12.9,14.08,47.84626,-54.09684
2021-07-04 18:19:01+00:00,307.6246,12.89,13.92,47.84626,-54.09684
2021-07-04 18:29:01+00:00,312.6681,12.9,13.92,47.84626,-54.09684
2021-07-04 18:39:01+00:00,310.848,12.9,13.92,47.84626,-54.09684
2021-07-04 18:49:01+00:00,320.1597,12.9,13.92,47.84626,-54.09684
2021-07-04 18:59:01+00:00,327.0381,12.9,13.92,47.84626,-54.09684
2021-07-04 19:09:01+00:00,326.2197,12.9,13.92,47.84626,-54.09684
2021-07-04 19:19:01+00:00,326.1981,12.9,13.84,47.84626,-54.09684
2021-07-04 19:29:01+00:00,329.7196,12.62,13.84,47.84626,-54.09684
2021-07-04 19:39:01+00:00,325.4564,12.79,13.84,47.84626,-54.09684
2021-07-04 19:49:01+00:00,325.9479,12.76,13.84,47.84626,-54.09684
2021-07-04 19:59:01+00:00,331.1379,12.76,13.84,47.84626,-54.09684
2021-07-04 20:09:01+00:00,330.8729,12.79,13.84,47.84626,-54.09684
2021-07-04 20:19:01+00:00,322.71299999999997,12.9,13.68,47.84626,-54.09684
2021-07-04 20:29:01+00:00,325.283,12.9,13.68,47.84626,-54.09684
2021-07-04 20:39:01+00:00,331.5596,12.9,13.68,47.84626,-54.09684
2021-07-04 20:49:01+00:00,329.4963,12.9,13.68,47.84626,-54.09684
2021-07-04 20:59:01+00:00,320.1497,12.88,13.68,47.84626,-54.09684
2021-07-04 21:09:01+00:00,318.7213,12.82,13.68,47.84626,-54.09684
2021-07-04 21:19:01+00:00,316.8164,12.81,13.37,47.84626,-54.09684
2021-07-04 21:29:01+00:00,310.163,12.84,13.37,47.84626,-54.09684
2021-07-04 21:39:01+00:00,302.8347,12.83,13.37,47.84626,-54.09684
2021-07-04 21:49:01+00:00,302.113,12.57,13.37,47.84626,-54.09684
2021-07-04 21:59:01+00:00,297.533,11.9,13.37,47.84626,-54.09684
2021-07-04 22:09:01+00:00,293.3347,11.9,13.37,47.84626,-54.09684
2021-07-04 22:19:01+00:00,289.058,12.08,13.05,47.84626,-54.09684
2021-07-04 22:29:01+00:00,286.0464,12.0,13.05,47.84626,-54.09684
2021-07-04 22:39:01+00:00,280.9647,11.9,13.05,47.84626,-54.09684
2021-07-04 22:49:01+00:00,274.3231,12.3,13.05,47.84626,-54.09684
2021-07-04 22:59:01+00:00,271.7597,12.7,13.05,47.84626,-54.09684
2021-07-04 23:09:01+00:00,264.0248,12.6,13.05,47.84626,-54.09684
2021-07-04 23:19:01+00:00,257.7164,12.12,12.81,47.84626,-54.09684
2021-07-04 23:29:01+00:00,248.4331,11.8,12.81,47.84626,-54.09684
2021-07-04 23:39:01+00:00,242.8181,12.42,12.81,47.84626,-54.09684
2021-07-04 23:49:01+00:00,242.0531,12.72,12.81,47.84626,-54.09684
2021-07-04 23:59:01+00:00,241.7365,12.7,12.81,47.84626,-54.09684
